This is the latest recevied weather packets stored in our database for station/object K0JRF-13. If no packets are shown the sender has not sent any weather packets the latest 10 day(s).
| Time | Temp. | Humidity | Pressure | Rain* | Wind** | Luminosity | Snow |
|---|---|---|---|---|---|---|---|
| 1787798847 | 20° C | 80% | 1013.2 hPa | - | - | - | - |
| 1787798247 | 19.44° C | 80% | 1013.2 hPa | - | - | - | - |
| 1787797647 | 20.56° C | 79% | 1013.5 hPa | - | - | - | - |
| 1787797047 | 20.56° C | 77% | 1013.5 hPa | - | - | - | - |
| 1787796447 | 20.56° C | 77% | 1013.5 hPa | - | - | - | - |
| 1787795847 | 20.56° C | 76% | 1013.5 hPa | - | - | - | - |
| 1787795247 | 21.11° C | 75% | 1013.9 hPa | - | - | - | - |
| 1787794647 | 21.11° C | 73% | 1013.9 hPa | - | - | - | - |
| 1787794047 | 21.67° C | 74% | 1013.5 hPa | - | - | - | - |
| 1787793447 | 22.22° C | 73% | 1013.9 hPa | - | - | - | - |
| 1787792847 | 22.22° C | 72% | 1013.9 hPa | - | - | - | - |
| 1787792247 | 22.22° C | 71% | 1013.9 hPa | - | - | - | - |
| 1787791647 | 22.78° C | 71% | 1013.9 hPa | - | - | - | - |
| 1787791047 | 23.33° C | 70% | 1013.9 hPa | - | - | - | - |
| 1787790447 | 23.33° C | 69% | 1013.5 hPa | - | - | - | - |
| 1787789847 | 23.89° C | 68% | 1013.9 hPa | - | - | - | - |
| 1787789247 | 23.89° C | 67% | 1013.5 hPa | - | - | - | - |
| 1787788647 | 24.44° C | 66% | 1013.9 hPa | - | - | - | - |
| 1787788047 | 25° C | 63% | 1013.9 hPa | - | - | - | - |
| 1787787448 | 26.11° C | 63% | 1013.5 hPa | - | - | - | - |
| 1787786847 | 25.56° C | 60% | 1013.9 hPa | - | - | - | - |
| 1787786247 | 26.11° C | 59% | 1013.9 hPa | - | - | - | - |
| 1787785648 | 26.67° C | 58% | 1013.9 hPa | - | - | - | - |
| 1787785047 | 27.22° C | 56% | 1013.9 hPa | - | - | - | - |
| 1787784447 | 27.22° C | 52% | 1013.5 hPa | - | - | - | - |
* Rain since midnight (hover to see other rain measurements)
** Current wind speed in m/s (hover to see current wind gust speed)